Погода в Ребрихе

Погода в Ребрихе : погода сейчас, прогноз погоды и архив. Всё, что Вы хотите узнать о погоде в Ребрихе!

Хотите узнать прогноз погоды в Ребрихе? Тогда Вам сюда: Погода в Ребрихе

Поиск расширенной информации на нашем сайте:

Другие новости

Новости СМИ2

Главная страница сайта

Новости сайта

03.07.2017

Напоминаем, что на нашем специализированном сайте Метеоцентр.Азия вы можете получить высокодетализированные автоматические прогнозы погоды по пунктам России, СНГ и мира в авиационном формате (включающие направление и скорость ветра, видимость, явления погоды, количество и форму облачности, нижнюю и верхнюю границу облачности).

Рекомендуем: Самая свежая информация песенки на английском для детей здесь.

Погода в Ребрихе - сегодня

Время (UTC), дата Ветер
(°,м/с) 
Видим.   Явления Облачность Т
(°С)
Тd
(°С)
f(%) Тe
(°С)
Pmin
(гПа)
dP
(гПа)
Po
(мм)
O2
(г/м3)
Тmin Tmax R s Состояние
почвы
09 18.07.17 240 (ЮЗ) 8-13{13}  н/о    н/о 
+14.7 +11.1 79 +17  1008.6  737  280           
12 18.07.17 190 (Ю) 1{13}  н/о    н/о 
+19.7 +14.9 74 +30  1008.2  0.1  737  274    +22.4     
15 18.07.17 190 (Ю) 1{17}  н/о    н/о 
+15.5 +13.7 89 +24  1008.7  0.1  737  278           
18 18.07.17 160 (Ю) н/о    н/о 
+11.8 +11.5 98 +17  1008.8  -0.3  737  282           
21 18.07.17 200 (Ю) н/о    н/о 
+10.3 +10.3 100 +13  1008.3  -0.7  737  284           
00 19.07.17 170 (Ю) н/о    н/о 
+11.1 +11.1 100 +15  1007.6  -0.7  736  283  +9.5       
03 19.07.17 210 (ЮЗ) н/о    н/о 
+19.5 +15.3 77 +30  1006.9  0.1  736  274           
06 19.07.17 170 (Ю) н/о    н/о 
+19.5 +13.5 68 +27  1007  0.1  736  274           
09 19.07.17 180 (Ю) 5{10}  н/о    н/о 
+18.7 +16.4 86 +31  1006.9  -0.2  736  274           
12 19.07.17 200 (Ю) 3{11}  н/о    н/о 
+17.9 +14.6 81 +26  1008.2  1.2  737  276    +20.4     
15 19.07.17 180 (Ю) н/о    н/о 
+15 +13.4 90 +22  1009.3  0.9  738  279           
18 19.07.17 180 (Ю) н/о    н/о 
+11.9 +11.5 97 +16  1009.7  738  283           
21 19.07.17 180 (Ю) н/о    н/о 
+12.8 +12.7 99 +18  1009.7  0.1  738  281           
00 20.07.17 160 (Ю) н/о    н/о 
+13.3 +13.2 99 +20  1010.5  0.8  738  281  +11.6    0.5     
03 20.07.17 190 (Ю) н/о    н/о 
+16.8 +15.3 91 +27  1010.7  0.6  739  277           
06 20.07.17 090 (В) н/о    н/о 
+16.4 +15.1 92 +27  1011.4  0.6  739  278           
09 20.07.17 200 (Ю) н/о    н/о 
+23.2 +15.5 62 +33  1009.2  -1.6  738  271           
12 20.07.17 280 (З) 4{10}  н/о    н/о 
+19.9 +13.5 67 +28  1010  0.5  739  275    +23.6     
15 20.07.17 160 (Ю) н/о    н/о 
+17.1 +15.2 89 +28  1011  0.8  739  277           
18 20.07.17 150 (ЮВ) н/о    н/о 
+13.7 +13.2 97 +21  1011.2  0.1  739  281           
21 20.07.17 170 (Ю) н/о    н/о 
+12 +11.9 99 +17  1011.8  0.4  739  283           
00 21.07.17 160 (Ю) н/о    н/о 
+12.4 +12.4 100 +19  1012.3  0.5  740  283  +10.9         
03 21.07.17 210 (ЮЗ) н/о    н/о 
+21.3 +15.7 70 +32  1011.9  0.4  740  273           
06 21.07.17 250 (З) н/о    н/о 
+22 +15.1 65 +31  1011.3  -0.6  740  273           
09 21.07.17 130 (ЮВ) н/о    н/о 
+21 +16.3 75 +32  1011.5  0.2  740  273           
Время (UTC), дата Ветер
(°,м/с) 
Видим.   Явления Облачность Т
(°С)
Тd
(°С)
f(%) Тe
(°С)
Pmin
(гПа)
dP
(гПа)
Po
(мм)
O2
(г/м3)
Тmin Tmax R s Состояние
почвы

Для получения пояснительной информации подведите курсор к названию столбца.

ПОГОДА в Ребрихе - архив

Всё, что Вы хотите узнать о погоде в Ребрихе - удобно и подробно!

Выберите нужную дату (начиная с 1 января 2015* года) и нажмите кнопку "Найти".
Будут отображены архивные сводки погоды по пункту Ребриха, начиная с указанной даты.


Отображать данные в формате CSV (для использования в таблицах Excel)


Внимание! Наш архив погоды предназначен исключительно для личного некоммерческого использования в познавательных целях. Если Вам необходимы официальные справки о состоянии погоды (для производственных, юридических, коммерческих и т.п. целей), обращайтесь в органы Росгидромета.

*Примечание: данная дата относится к архиву по метеостанциям СССР (Россия, СНГ, Балтия).
Архив по метеостанциям Зарубежной Европы и Азии (кроме Китая) хранится 10 дней, по другим регионам земного шара (Китай, Африка, Америка, Австралия, Океания) - 1 день.

Ребриха - район местоположения метеостанции


Название, широта, долгота, высота метеостанции:
Ребриха 53.1°ш. 82.3°д. 219 м над ур. моря [Российская Федерация]

Дополнительная информация

В oтличие oт бoльшинства пoгoдных сайтoв мы публикуем пoдрoбную метеoинфoрмацию в детальнoм прoфессиoнальнoм фoрмате.

Характеристики температуры и влажнoсти вoздуха измеряются на высoте 2 м в тени вдали oт зданий и деревьев.
Скoрoсть ветра измеряется на высoте 10 м (на урoвне рoста челoвека скoрoсть ветра ниже в 1.5-2 раза). Если метеoстанция нахoдится в гoрoде или в лесу, тo скoрoсть ветра занижена на 2-4 м/с пo сравнению с oткрытым местoм. Скoрoсть ветра над акватoриями крупных рек и oзёр, а также на вершинах хoлмoв на 2-5 м/с выше, чем в oбычных услoвиях.
Атмoсфернoе давление в разных тoчках местнoсти мoжет значительнo oтличаться oт давления на метеoстанции, в зависимoсти oт услoвий рельефа (при пoдъёме на 10 м давление пoнижается примернo на 1 мм рт.ст.).